This is the latest recevied weather packets stored in our database for station/object N2PPN. If no packets are shown the sender has not sent any weather packets the latest 10 day(s).
| Time | Temp. | Humidity | Pressure | Rain* | Wind** | Luminosity | Snow |
|---|---|---|---|---|---|---|---|
| 1777743872 | 14.44° C | 72% | 1014 hPa | 0 mm | - | 501 W/m² | - |
| 1777743265 | 13.33° C | 73% | 1014.1 hPa | 0 mm | - | 328 W/m² | - |
| 1777742356 | 13.89° C | 73% | 1014.3 hPa | 0 mm | - | 34 W/m² | - |
| 1777742052 | 13.89° C | 70% | 1014 hPa | 0 mm | - | 48 W/m² | - |
| 1777741751 | 14.44° C | 71% | 1014.6 hPa | 0 mm | - | 88 W/m² | - |
| 1777741142 | 13.89° C | 73% | 1014.6 hPa | 0 mm | - | 175 W/m² | - |
| 1777740537 | 13.89° C | 69% | 1014.6 hPa | 0 mm | - | 232 W/m² | - |
| 1777739929 | 14.44° C | 69% | 1014.7 hPa | 0 mm | - | 367 W/m² | - |
| 1777739323 | 13.89° C | 69% | 1014.6 hPa | 0 mm | - | 221 W/m² | - |
| 1777738112 | 13.89° C | 69% | 1014.6 hPa | 0 mm | - | 242 W/m² | - |
| 1777737509 | 13.33° C | 71% | 1014.9 hPa | 0 mm | - | 246 W/m² | - |
| 1777736902 | 13.89° C | 69% | 1014.7 hPa | 0 mm | - | 369 W/m² | - |
| 1777736293 | 13.33° C | 72% | 1014.9 hPa | 0 mm | - | 240 W/m² | - |
| 1777735688 | 13.89° C | 71% | 1015 hPa | 0 mm | - | 266 W/m² | - |
| 1777735385 | 13.33° C | 72% | 1015 hPa | 0 mm | - | 257 W/m² | - |
| 1777735082 | 12.78° C | 72% | 1015.1 hPa | 0 mm | - | 256 W/m² | - |
| 1777734779 | 12.78° C | 74% | 1015 hPa | 0 mm | - | 156 W/m² | - |
| 1777734477 | 12.78° C | 75% | 1015.1 hPa | 0 mm | - | 150 W/m² | - |
| 1777733869 | 12.78° C | 74% | 1015 hPa | 0 mm | - | 143 W/m² | - |
| 1777733262 | 12.78° C | 75% | 1015 hPa | 0 mm | - | 109 W/m² | - |
| 1777732655 | 12.78° C | 79% | 1015.1 hPa | 0 mm | - | 196 W/m² | - |
| 1777732353 | 12.22° C | 80% | 1014.8 hPa | 0 mm | - | 117 W/m² | - |
| 1777732051 | 12.22° C | 80% | 1014.8 hPa | 0 mm | - | 78 W/m² | - |
| 1777731747 | 11.67° C | 81% | 1015 hPa | 0 mm | - | 81 W/m² | - |
| 1777731444 | 12.22° C | 80% | 1014.8 hPa | 0 mm | - | 80 W/m² | - |
* Rain latest hour (hover to see other rain measurements)
** Current wind speed in m/s (hover to see current wind gust speed)